Weather History for Harrison, AR

Change the Weather History Date:

Wednesday, February 13, 2013

  Actual Average Record
Temperature  
Mean Temperature 42 °F 40 °F  
Max Temperature 51 °F 50 °F 81 °F (1962)
Min Temperature 32 °F 30 °F -20 °F (1905)
Degree Days  
Heating Degree Days 23 25  
Month to date heating degree days 287 340  
Since 1 July heating degree days 2483 2826  
Cooling Degree Days 0 0  
Month to date cooling degree days 0 0  
Year to date cooling degree days 1 0  
Moisture  
Dew Point 32 °F    
Average Humidity 71    
Maximum Humidity 100    
Minimum Humidity 41    
Precipitation  
Precipitation 0.06 in 0.09 in 2.44 in (1989)
Month to date precipitation 1.57 1.17  
Year to date precipitation 4.94 3.73  
Snow  
Snow 0.60 in 0.10 in 1.50 in (1948)
Month to date snowfall 1.0 1.7  
Since 1 July snowfall 1.3 7.7  
Snow Depth T in    
Sea Level Pressure  
Sea Level Pressure 29.95 in    
Wind  
Wind Speed 8 mph (WNW)    
Max Wind Speed 16 mph    
Max Gust Speed 23 mph    
Visibility 8 miles    
Events Snow    
T = Trace of Precipitation, MM = Missing Value Source: NWS Daily Summary

Daily Weather History Graph

Daily Weather History Graph

Search for Another Location

Airport:

Trip Planner

Search our weather history database for the weather conditions in past years. The results will help you decide how hot, cold, wet, or windy it might be!

Date:

Astronomy

Feb. 13, 2013 Rise Set
Actual Time 7:02 AM CST 5:52 PM CST
Civil Twilight 6:35 AM CST 6:18 PM CST
Nautical Twilight 6:05 AM CST 6:48 PM CST
Astronomical Twilight 5:35 AM CST 7:18 PM CST
Moon 8:40 AM CST (2/13) 9:46 PM CST (2/13)
Length of Visible Light 11h 42m
Length of Day
10h 49m
Waxing Crescent, 14% of the Moon is Illuminated
Feb 13
Waxing Crescent
Feb 17
First Quarter
Feb 25
Full
Mar 4
Last Quarter
Mar 11
New

Hourly Weather History & Observations

Time (CST) Temp. Windchill Dew Point Humidity Pressure Visibility Wind Dir Wind Speed Gust Speed Precip Events Conditions
12:07 AM 33.8 °F 27.7 °F 32.0 °F 93% 29.93 in 1.8 mi NNW 6.9 mph - 0.00 in Snow Light Snow
12:53 AM 32.0 °F 27.5 °F 32.0 °F 100% 29.94 in 2.0 mi NNW 4.6 mph - 0.02 in Snow Light Snow
1:19 AM 32.0 °F 27.5 °F 32.0 °F 100% 29.92 in 3.0 mi WNW 4.6 mph - 0.00 in Snow Light Snow
1:36 AM 32.0 °F 25.6 °F 32.0 °F 100% 29.92 in 2.0 mi WNW 6.9 mph - 0.00 in Snow Light Snow
1:43 AM 32.0 °F 27.5 °F 32.0 °F 100% 29.92 in 1.8 mi WNW 4.6 mph - 0.01 in Snow Light Snow
1:53 AM 33.1 °F 27.7 °F 32.0 °F 96% 29.94 in 1.8 mi WNW 5.8 mph - 0.01 in Snow Light Snow
2:34 AM 32.0 °F 27.5 °F 32.0 °F 100% 29.91 in 2.5 mi WNW 4.6 mph - 0.01 in Snow Light Snow
2:53 AM 33.1 °F 27.7 °F 32.0 °F 96% 29.92 in 2.5 mi WNW 5.8 mph - 0.02 in Snow Light Snow
3:15 AM 33.8 °F 28.6 °F 32.0 °F 93% 29.90 in 3.0 mi NW 5.8 mph - 0.00 in Snow Light Snow
3:53 AM 32.0 °F 24.8 °F 32.0 °F 100% 29.93 in 2.5 mi WNW 8.1 mph - 0.01 in Snow Light Snow
4:29 AM 33.8 °F 27.0 °F 32.0 °F 93% 29.92 in 3.0 mi WNW 8.1 mph - 0.00 in   Overcast
4:53 AM 33.1 °F 26.9 °F 32.0 °F 96% 29.95 in 7.0 mi NW 6.9 mph - 0.00 in   Overcast
5:43 AM 33.8 °F 27.7 °F 32.0 °F 93% 29.93 in 7.0 mi WNW 6.9 mph - 0.00 in   Overcast
5:53 AM 33.1 °F 26.9 °F 32.0 °F 96% 29.95 in 8.0 mi WNW 6.9 mph - 0.00 in   Overcast
6:43 AM 33.8 °F 28.6 °F 32.0 °F 93% 29.94 in 10.0 mi WNW 5.8 mph - N/A   Overcast
6:53 AM 33.1 °F 28.7 °F 32.0 °F 96% 29.97 in 10.0 mi WNW 4.6 mph - N/A   Overcast
7:02 AM 33.8 °F 27.0 °F 32.0 °F 93% 29.95 in 10.0 mi West 8.1 mph - N/A   Overcast
7:41 AM 33.8 °F 27.7 °F 32.0 °F 93% 29.97 in 10.0 mi West 6.9 mph - N/A   Overcast
7:53 AM 34.0 °F 28.0 °F 32.0 °F 92% 30.00 in 10.0 mi WNW 6.9 mph - N/A   Overcast
8:26 AM 33.8 °F 29.6 °F 33.8 °F 100% 29.98 in 10.0 mi WNW 4.6 mph - N/A   Overcast
8:53 AM 36.0 °F 31.1 °F 33.1 °F 89% 30.01 in 10.0 mi West 5.8 mph - N/A   Overcast
9:41 AM 37.4 °F 32.1 °F 33.8 °F 87% 29.99 in 10.0 mi West 6.9 mph - N/A   Mostly Cloudy
9:53 AM 37.9 °F 30.9 °F 34.0 °F 86% 30.01 in 10.0 mi WSW 10.4 mph 17.3 mph N/A   Mostly Cloudy
10:10 AM 39.2 °F 32.5 °F 33.8 °F 81% 29.98 in 10.0 mi WSW 10.4 mph - N/A   Scattered Clouds
10:53 AM 41.0 °F 35.2 °F 34.0 °F 76% 30.00 in 10.0 mi WSW 9.2 mph - N/A   Partly Cloudy
11:53 AM 44.1 °F 38.1 °F 33.1 °F 65% 29.99 in 10.0 mi West 11.5 mph 17.3 mph N/A   Partly Cloudy
12:53 PM 46.0 °F 41.0 °F 33.1 °F 61% 29.96 in 10.0 mi West 10.4 mph 17.3 mph N/A   Clear
1:53 PM 48.0 °F - 33.1 °F 56% 29.95 in 10.0 mi West 11.5 mph - N/A   Scattered Clouds
2:53 PM 50.0 °F - 30.0 °F 46% 29.93 in 10.0 mi West 10.4 mph - N/A   Clear
3:53 PM 51.1 °F - 28.9 °F 43% 29.92 in 10.0 mi WNW 10.4 mph - N/A   Clear
4:53 PM 50.0 °F - 30.0 °F 46% 29.93 in 10.0 mi WNW 10.4 mph - N/A   Clear
5:53 PM 46.0 °F 43.9 °F 30.0 °F 54% 29.94 in 10.0 mi WSW 4.6 mph - N/A   Clear
6:53 PM 43.0 °F - 28.9 °F 58% 29.95 in 10.0 mi Calm Calm - N/A   Clear
7:53 PM 42.1 °F 40.2 °F 30.0 °F 62% 29.95 in 10.0 mi WSW 3.5 mph - N/A   Clear
8:53 PM 44.1 °F 39.5 °F 28.9 °F 55% 29.95 in 10.0 mi West 8.1 mph - N/A   Clear
9:53 PM 44.1 °F 39.0 °F 28.0 °F 53% 29.96 in 10.0 mi West 9.2 mph - N/A   Clear
10:53 PM 45.0 °F 40.1 °F 28.9 °F 53% 29.95 in 10.0 mi WSW 9.2 mph - N/A   Clear
11:53 PM 45.0 °F 40.1 °F 28.9 °F 53% 29.95 in 10.0 mi West 9.2 mph 17.3 mph N/A   Clear